Wind_Speed
8 6 6 5 5 4 2 1 2 2 3 4 7 9 10 12 13 13 12 11 10 10 10 11 12 12 13 15 16 17 17 18 18 18 19 20 20 21 21 22 22 23 23 24 24 24 25 26 26 27 27 28 28 29 29 30 29 29 29 28 27 25 24 23 21 20 19 18 18 18 19 20 21 22 22 23 23 21 18 15 12 10 8 7 7
13 11 9 8 8 7 5 4 3 4 5 5 5 6 8 10 11 12 12 11 10 9 8 8 9 10 11 12 13 14 14 14 14 14 14 15 15 16 17 18 18 19 20 20 21 22 22 23 23 24 25 25 25 26 27 27 27 28 28 27 26 24 23 22 21 20 19 17 16 16 17 18 19 19 19 20 21 20 17 14 11 8 6 5 4
17 16 14 12 11 10 9 7 6 7 8 8 8 7 7 8 9 11 12 12 11 10 8 7 7 8 9 9 9 9 10 10 10 10 11 11 12 12 13 14 15 16 17 17 18 19 20 20 21 22 22 22 23 23 24 24 25 25 26 25 24 23 22 21 20 19 18 17 16 15 15 16 17 17 16 16 18 19 16 13 10 7 4 3 1
19 18 17 16 14 13 12 11 10 10 10 11 11 11 10 9 9 10 10 11 11 11 10 8 7 6 6 5 4 3 5 7 8 8 9 10 10 10 10 11 13 14 14 15 16 16 17 18 18 19 19 19 20 20 21 22 22 23 23 23 23 22 21 20 19 17 17 16 15 14 14 14 14 14 13 13 14 16 16 14 11 7 5 3 3
20 19 19 18 17 16 15 14 14 13 13 13 14 14 14 13 12 12 11 11 11 12 12 11 10 7 3 3 4 3 1 3 4 6 7 8 9 9 10 10 11 12 13 13 13 14 14 15 16 16 16 16 17 17 18 19 19 20 21 21 21 20 20 19 18 17 16 15 14 13 12 11 11 11 11 10 10 12 15 15 12 9 7 6 6
21 21 20 20 19 19 19 18 17 17 16 15 15 16 16 16 16 16 15 14 13 13 12 12 11 9 8 8 7 6 5 5 4 4 4 6 7 9 9 9 9 11 12 12 12 11 11 12 12 13 14 14 14 15 15 16 16 17 17 18 18 18 18 18 17 16 15 14 13 12 10 9 8 8 8 8 7 8 11 14 13 11 9 9 9
24 23 23 22 22 22 23 23 22 21 20 19 18 18 18 18 19 19 19 19 18 17 16 14 13 12 12 12 11 9 8 8 9 8 7 6 7 8 9 8 7 7 8 9 9 9 8 8 8 8 9 11 11 12 13 14 14 15 15 15 15 16 16 15 15 14 13 13 12 11 10 8 6 5 5 6 6 6 8 11 13 13 12 11 12
26 25 24 25 25 25 26 26 26 24 23 22 21 20 19 20 21 21 21 21 21 21 20 18 16 15 15 15 14 12 11 10 11 12 11 10 8 8 9 8 6 6 6 6 7 7 6 5 4 4 5 6 7 8 9 10 11 13 13 13 13 13 13 13 12 11 10 10 9 9 9 8 7 5 3 2 4 6 8 10 12 13 14 14 15
27 26 26 27 28 28 28 28 28 28 26 25 23 22 21 22 22 21 21 21 22 22 22 22 21 19 19 18 17 16 15 14 14 14 14 13 12 11 10 9 8 8 7 7 8 7 7 5 4 3 2 3 3 4 5 7 8 9 10 10 11 11 11 11 11 10 9 8 7 6 6 5 5 5 4 3 2 4 7 9 12 14 15 16 17
26 25 26 28 29 29 30 31 31 31 30 28 27 26 26 26 25 23 22 21 22 22 22 23 24 23 22 21 20 19 19 19 18 17 16 15 15 14 14 13 12 11 11 11 10 9 8 8 7 6 4 3 2 2 2 2 3 5 6 7 8 8 8 8 9 9 9 8 7 6 5 4 4 5 5 6 6 7 8 9 11 13 15 18 19
27 27 29 29 30 31 33 34 35 34 33 32 32 32 32 31 29 26 24 23 22 22 22 23 25 26 25 24 23 23 22 21 21 21 20 18 17 17 16 15 15 15 15 15 13 12 11 11 10 9 7 6 5 4 3 1 0 1 3 3 4 5 5 5 6 7 8 9 8 8 7 7 6 6 7 8 9 11 13 14 15 16 17 19 21
31 32 33 31 29 30 32 35 37 38 37 35 35 36 36 34 32 29 27 26 25 23 23 23 24 25 26 26 26 27 26 25 23 22 22 22 20 19 18 17 17 18 18 18 17 15 14 14 13 11 10 8 7 6 5 4 3 2 2 3 3 3 3 3 4 5 6 7 8 9 9 9 10 10 10 10 11 12 14 16 18 19 21 22 24
33 34 34 34 32 33 34 34 36 38 38 37 37 38 39 38 36 33 32 30 28 25 24 23 24 25 27 28 29 30 29 27 25 24 24 24 23 22 22 21 20 20 20 20 19 19 18 18 17 15 14 13 10 7 6 5 5 4 4 5 5 5 5 5 5 5 5 6 8 10 11 11 12 13 13 14 14 15 16 17 19 20 22 24 26
34 34 35 37 38 40 40 38 37 37 36 37 38 39 40 40 39 38 36 35 33 30 26 25 26 28 29 30 31 32 29 26 25 26 27 27 27 27 26 25 24 24 23 22 21 21 22 23 21 19 19 19 17 13 10 9 9 8 7 6 6 6 7 7 8 8 9 9 10 11 12 13 13 14 15 16 17 18 19 20 21 22 24 25 28
36 37 39 39 40 43 44 42 39 38 37 37 38 39 40 41 41 40 40 39 38 35 32 30 30 33 33 32 32 32 31 29 29 30 30 30 30 30 30 29 28 28 27 26 24 23 23 24 24 23 23 24 23 21 18 16 15 15 14 12 10 9 8 8 9 10 11 12 12 13 14 14 14 15 15 16 18 19 20 21 22 24 26 28 30
38 41 42 43 44 45 46 45 43 42 42 41 41 42 42 42 43 43 43 44 44 40 37 35 35 37 37 35 34 34 33 34 34 33 34 34 33 33 33 32 32 32 31 29 27 26 25 25 27 28 27 27 27 27 26 24 22 22 22 21 18 16 14 12 12 13 13 13 14 15 15 16 17 17 17 18 19 19 19 20 21 23 26 29 31
41 42 43 46 48 48 48 48 48 47 47 47 45 44 44 44 45 45 45 46 46 43 41 39 39 41 41 38 37 36 35 36 36 36 37 38 37 35 35 35 34 34 33 31 28 27 27 27 30 31 30 30 30 31 31 31 30 29 29 30 29 26 23 20 18 17 16 16 16 16 17 19 19 20 20 22 23 24 24 24 24 24 26 29 32
44 45 46 47 49 50 50 52 52 50 51 52 50 48 47 45 42 42 43 45 44 42 43 43 43 45 45 43 41 39 37 39 40 39 38 39 37 35 35 37 38 37 37 35 32 30 30 31 32 33 33 34 34 35 35 35 34 33 33 34 35 34 33 32 29 25 22 20 21 21 22 22 22 22 22 24 25 27 28 29 29 29 30 32 35
46 48 50 51 52 53 54 55 55 53 51 53 53 52 50 45 41 41 43 45 44 44 46 47 47 48 48 47 45 42 40 41 43 41 37 36 34 33 34 37 40 41 42 41 38 35 34 34 34 33 33 35 37 38 38 37 35 34 34 34 35 36 37 38 37 35 31 29 28 28 29 29 28 28 27 28 28 28 29 31 32 34 34 36 39
54 54 56 57 56 57 58 59 59 56 53 54 56 57 55 51 48 48 49 49 48 48 50 50 49 50 51 50 48 47 45 45 45 42 37 35 34 33 34 36 38 40 41 40 39 38 37 36 35 34 35 37 38 38 38 37 36 35 36 35 35 35 37 38 40 40 39 37 35 35 36 37 37 36 36 37 36 34 32 32 33 36 37 39 42
63 61 61 62 61 60 61 61 60 59 58 58 59 60 60 58 56 55 55 55 53 51 51 51 50 51 53 54 54 53 51 50 49 45 40 38 37 36 35 36 37 37 35 35 36 37 38 38 38 38 38 37 37 38 39 39 38 39 39 38 38 38 38 41 44 44 43 42 41 41 43 45 46 46 46 45 44 42 40 38 37 38 40 42 44
66 65 64 65 66 66 65 64 62 61 62 63 64 63 62 62 62 60 58 58 58 57 55 54 52 53 55 55 56 56 55 53 52 49 45 43 43 42 41 41 41 40 39 38 38 40 42 44 45 45 44 43 44 46 45 43 43 44 43 42 41 41 40 43 47 49 48 48 49 49 50 51 52 53 52 51 50 49 49 47 44 43 44 46 49
64 65 65 66 67 68 69 68 66 65 66 67 67 66 63 62 63 62 59 59 60 62 63 61 59 59 59 59 58 58 57 57 55 54 51 49 50 50 49 47 46 45 45 45 46 47 49 51 51 48 47 47 48 46 43 42 42 43 43 43 44 45 47 50 53 54 55 56 57 56 55 55 56 57 57 57 57 57 57 55 53 52 52 54 56
65 64 65 67 67 66 66 67 68 68 70 71 71 70 66 63 63 63 62 61 61 62 64 65 65 64 63 64 63 62 61 61 60 59 58 56 56 57 56 54 53 52 52 53 53 53 53 54 54 53 52 52 51 46 44 45 46 45 46 48 51 53 55 58 59 60 61 63 64 62 61 61 61 61 62 62 62 62 63 63 62 62 62 62 62
74 67 63 67 71 69 65 65 66 67 70 72 73 73 71 69 68 67 67 67 65 64 63 64 65 65 65 66 66 66 66 66 65 65 64 62 61 61 62 62 61 61 60 61 61 60 59 58 58 57 58 58 55 50 50 52 53 53 55 58 60 59 59 62 66 67 67 68 68 67 67 67 66 66 66 67 68 69 69 70 70 70 69 68 68
83 80 73 72 76 76 73 71 70 69 69 70 72 73 74 74 74 74 73 73 73 72 70 68 67 68 68 68 69 69 70 71 71 70 69 68 67 66 66 67 68 68 68 68 68 68 67 65 64 62 62 61 58 56 58 61 63 65 66 68 69 68 69 73 75 74 74 74 73 73 72 72 71 71 71 72 74 75 75 76 76 77 76 75 75
83 85 83 82 82 82 80 80 79 77 75 74 74 75 76 78 79 80 80 80 80 79 79 77 76 74 74 74 75 75 75 75 76 76 75 73 72 71 71 72 72 73 73 73 73 73 72 72 71 70 69 68 66 66 69 72 74 76 76 77 78 79 80 82 82 81 81 81 79 78 77 77 77 77 77 78 79 80 80 81 82 82 83 83 82
86 85 85 86 87 86 85 85 85 84 83 81 79 78 78 79 81 83 84 84 84 84 84 84 83 81 79 78 78 78 79 79 79 79 79 78 77 77 76 76 77 77 77 77 78 77 77 76 76 76 75 74 73 73 75 77 79 80 81 82 82 83 84 86 85 85 85 85 84 83 82 81 81 81 81 82 84 85 85 86 87 87 88 87 86
94 92 89 89 89 90 89 89 89 88 88 87 85 84 82 81 82 83 83 84 85 85 85 85 86 85 83 81 80 80 80 81 81 82 82 81 81 80 80 80 81 82 82 82 83 83 83 82 82 82 81 81 80 80 81 82 84 84 85 85 85 85 87 88 88 88 88 88 88 88 87 86 85 84 84 85 86 88 89 89 90 90 91 91 90
102 101 98 96 94 94 94 95 95 95 94 93 92 91 90 88 87 86 86 86 86 86 86 86 87 87 87 86 84 83 83 83 84 85 85 85 85 84 84 84 85 86 86 87 87 88 88 88 88 88 88 88 87 87 88 88 89 90 89 89 89 88 89 89 90 91 91 91 91 91 90 90 89 89 88 88 89 91 92 93 93 93 93 94 93
111 110 108 105 103 100 100 100 101 101 101 101 100 100 99 97 95 94 93 92 91 91 90 90 89 89 90 90 90 89 88 87 87 88 88 89 89 89 89 88 88 88 89 89 90 92 93 93 94 94 94 94 94 94 94 95 95 94 94 94 93 93 93 94 94 95 95 95 95 94 93 92 92 92 92 93 93 94 96 96 96 96 96 96 96
116 116 116 114 113 110 107 106 105 105 105 104 105 105 105 104 102 101 99 98 97 96 96 96 95 95 95 95 96 96 95 94 93 92 92 92 92 93 92 92 92 92 92 92 93 94 95 97 98 99 99 99 99 99 99 99 99 99 98 98 98 98 98 98 98 97 97 97 98 97 96 94 94 95 96 96 97 98 98 99 98 98 97 97 97
118 120 120 120 120 119 117 114 112 110 109 108 107 107 107 107 106 106 105 104 103 102 101 100 100 100 100 101 102 102 102 101 101 100 99 99 99 99 99 98 98 97 97 96 96 96 97 98 99 101 102 103 103 103 103 103 102 102 102 102 101 101 100 99 98 97 97 98 99 99 99 99 99 99 99 99 100 101 101 100 99 99 98 98 99
120 122 123 124 125 125 124 123 121 118 116 115 114 113 112 111 110 110 109 108 108 107 106 105 104 103 104 105 106 106 107 107 107 107 107 107 106 106 105 104 104 103 102 101 100 100 100 100 100 102 103 105 105 106 106 106 105 105 105 105 104 104 103 102 101 101 101 102 103 103 104 104 104 103 103 103 104 105 105 104 103 102 101 101 101
120 122 124 126 127 128 129 129 128 127 126 125 124 123 122 121 120 119 119 118 116 115 114 112 111 110 110 110 110 110 111 111 112 112 112 112 111 111 110 109 109 108 107 106 106 105 105 104 104 104 105 106 107 108 108 108 108 108 107 108 108 108 108 107 107 107 107 107 107 108 108 108 108 107 107 108 109 109 109 108 107 106 105 106 108
118 121 123 125 127 130 131 132 132 132 133 133 133 133 133 132 132 132 132 131 130 129 127 126 124 123 122 121 120 120 119 119 118 118 118 118 117 116 116 115 115 114 113 113 112 111 110 110 109 109 109 109 110 110 110 111 111 110 110 110 110 111 111 111 112 112 112 112 112 113 113 113 114 114 114 114 115 114 113 112 112 112 113 116 118
118 119 121 123 125 128 130 132 134 135 136 137 137 138 138 139 139 139 139 138 138 138 137 136 135 134 133 132 131 130 129 128 127 126 126 125 125 124 124 124 123 122 122 121 121 120 119 118 118 118 118 117 117 116 116 116 116 116 116 115 115 115 115 116 116 117 118 119 119 120 121 121 121 121 121 120 120 119 119 118 118 119 121 122 124
119 120 121 122 123 125 127 129 132 134 136 138 139 140 140 141 141 141 141 141 140 140 140 140 140 139 139 139 139 138 137 135 134 132 131 131 131 131 131 131 131 131 130 130 129 129 128 128 128 128 127 126 125 124 123 122 122 122 122 122 121 121 120 120 120 121 122 123 125 126 127 127 127 127 126 125 124 124 123 123 124 125 126 127 127
120 121 122 123 124 125 126 128 129 131 133 135 137 139 140 142 143 143 144 144 144 143 143 142 142 142 142 142 142 142 142 142 141 139 138 137 136 135 134 134 135 135 135 135 134 134 134 134 134 134 134 132 130 129 127 126 126 126 126 126 126 126 125 124 124 125 126 126 127 128 129 130 130 130 130 129 128 128 128 128 129 130 130 131 131
121 122 123 124 125 126 127 128 130 131 132 133 135 137 138 140 141 142 143 144 145 145 146 145 145 145 145 145 144 144 144 144 144 144 144 143 142 141 139 138 137 137 136 136 136 136 136 135 135 135 134 133 132 130 129 128 128 128 128 128 129 129 129 129 129 129 130 130 131 131 132 132 132 132 132 132 132 132 133 133 134 134 135 136 136
123 124 125 126 127 127 128 129 130 131 133 134 135 136 138 139 140 141 142 143 144 144 145 146 146 147 147 147 147 147 146 146 146 146 145 145 144 144 143 142 141 139 138 136 136 135 135 135 135 135 135 134 133 133 132 131 131 130 131 131 131 132 133 134 134 134 135 135 135 135 136 136 136 136 136 136 137 137 138 138 139 140 140 140 140
125 126 127 128 129 130 131 131 132 133 134 135 136 137 138 139 140 141 142 143 144 144 145 145 146 146 147 148 148 148 148 148 147 147 146 146 145 145 144 143 142 141 140 138 137 136 135 135 135 135 135 136 136 135 135 135 135 135 135 135 135 136 137 137 138 138 139 139 139 140 140 140 140 140 141 141 142 142 143 143 144 144 144 144 143
124 126 128 130 131 132 133 134 135 136 137 138 138 139 140 140 141 142 142 143 144 144 145 145 146 146 147 148 148 149 149 149 149 149 148 148 147 147 146 145 144 144 143 142 142 141 140 140 139 139 139 139 139 139 139 139 139 139 139 139 139 140 140 141 141 142 142 143 143 143 143 144 144 145 145 146 147 147 147 148 148 147 147 146 146
120 123 126 128 130 132 134 135 137 138 139 140 141 141 142 143 143 144 144 145 145 145 145 145 146 146 147 148 148 148 148 149 149 149 149 149 149 148 148 148 147 147 147 146 146 146 146 146 146 146 146 146 146 146 145 145 145 145 145 145 145 145 145 145 145 146 147 147 147 147 147 147 148 149 150 150 151 151 152 151 151 151 150 150 149
112 116 120 124 127 130 132 135 136 138 140 141 142 143 144 144 145 145 146 146 147 147 147 147 147 148 148 148 148 148 148 148 148 148 148 149 149 149 149 149 148 148 149 149 149 149 149 150 150 150 150 150 150 150 150 150 150 151 151 151 151 151 151 151 152 152 152 152 153 153 153 153 153 154 154 154 154 155 155 155 154 153 152 151 149
102 107 111 115 120 124 127 131 133 136 138 139 141 142 143 144 145 146 147 147 148 148 149 149 149 150 150 150 149 149 149 149 149 149 149 149 149 149 149 149 149 149 149 149 150 150 150 150 150 150 151 151 151 151 151 151 152 152 152 153 153 153 153 154 154 154 154 154 155 155 156 156 156 155 155 155 154 154 154 154 153 152 150 149 147
95 98 102 106 110 114 118 122 125 128 130 133 135 137 139 141 142 144 145 146 148 149 150 150 151 151 151 151 151 151 151 151 151 150 150 150 150 150 150 150 150 151 151 151 151 151 151 151 151 151 151 151 151 151 151 151 151 151 152 152 152 153 153 153 152 152 152 152 152 153 153 153 153 153 152 152 151 151 150 150 150 150 149 148 147
92 94 97 100 103 106 108 111 114 116 119 121 124 126 129 131 133 135 137 140 142 144 146 148 149 149 150 151 151 151 152 152 152 152 152 152 152 152 153 153 153 153 153 152 152 152 152 152 152 152 151 151 151 151 151 151 151 151 151 151 151 151 151 151 151 151 151 151 151 150 151 151 151 151 150 150 149 149 148 148 147 147 147 146 145
91 93 95 97 98 100 102 104 105 107 109 111 112 114 117 119 120 122 124 127 129 132 134 136 138 140 141 142 144 145 146 147 148 149 150 150 151 152 152 153 153 153 153 153 154 154 154 154 153 153 153 152 152 152 152 152 152 152 152 151 151 151 151 151 151 151 150 150 150 150 150 149 149 149 149 148 148 147 146 146 145 145 144 144 143
90 91 93 94 95 97 98 99 100 102 103 104 105 107 108 109 111 112 113 115 116 118 120 122 124 125 127 128 129 131 132 134 135 137 138 139 141 142 143 144 145 146 147 148 148 149 150 151 151 151 151 151 151 151 151 151 151 151 151 151 151 151 151 150 150 150 149 149 149 149 148 148 148 147 147 146 146 145 145 144 143 143 142 141 140
88 89 90 91 92 93 94 95 96 97 98 99 100 101 102 103 104 105 106 106 107 109 110 111 112 113 114 115 116 117 118 120 121 122 124 125 126 128 129 130 131 132 134 135 136 137 138 139 140 141 141 142 142 143 143 144 144 145 145 146 146 146 146 146 146 146 146 145 145 145 145 144 144 143 143 142 142 141 140 140 139 138 137 136 136
Wind_Direction
253 252 248 245 246 241 233 252 297 310 329 340 345 348 352 355 357 359 3 10 19 29 39 45 49 54 59 62 60 57 55 57 58 58 56 56 55 54 54 54 55 55 55 56 56 58 60 61 61 61 60 60 61 63 66 68 69 69 68 67 68 70 73 76 80 83 88 95 105 117 127 135 141 144 148 154 157 154 148 144 139 133 125 113 100
256 257 258 256 254 255 259 269 288 292 287 287 301 319 329 337 343 345 347 350 357 7 18 30 38 42 49 58 63 62 57 53 54 58 60 60 59 58 56 55 54 54 54 54 54 55 57 60 62 62 62 61 60 60 62 65 67 69 70 70 69 69 69 72 77 82 87 93 100 111 122 131 138 143 147 154 161 161 157 151 148 143 134 122 102
255 257 258 259 258 260 264 271 285 297 294 285 281 285 296 310 321 328 332 334 338 343 351 2 16 29 43 52 63 73 71 57 46 46 49 53 55 57 56 56 56 56 56 55 54 54 55 58 61 63 64 64 63 62 62 63 65 68 70 71 72 72 71 71 73 76 82 89 97 108 120 130 138 142 145 153 163 168 167 163 159 158 157 151 142
251 255 260 263 267 269 271 275 281 289 294 293 288 284 284 288 295 305 312 317 322 327 329 333 345 6 36 47 44 70 85 70 49 35 30 34 39 42 44 47 50 54 56 56 55 54 53 55 59 63 65 66 66 64 63 63 64 66 68 70 72 72 72 72 73 74 77 82 89 99 113 127 138 144 146 151 163 174 178 177 177 180 194 216 242
254 258 262 264 268 273 277 279 281 283 286 292 294 291 289 289 289 290 293 297 303 312 316 318 324 331 334 326 327 331 14 58 47 31 19 14 15 19 25 32 42 49 50 49 49 49 49 49 52 58 63 66 67 66 65 64 64 65 66 69 71 73 73 72 71 72 74 77 82 89 101 116 132 144 149 152 160 175 185 190 193 199 216 237 253
257 258 259 261 263 266 269 271 272 275 276 280 284 288 287 288 288 288 289 289 289 293 298 302 308 308 298 301 311 308 298 295 310 336 351 350 349 352 358 12 32 46 50 47 42 39 39 40 43 48 53 60 65 66 65 64 63 63 64 66 70 73 74 73 72 70 68 69 72 77 85 100 119 138 151 158 162 175 189 199 206 214 226 244 259
254 254 255 257 260 262 264 266 267 269 271 269 267 273 279 279 279 281 284 285 285 285 284 285 289 290 289 294 301 302 297 294 296 300 301 306 321 328 330 342 2 23 36 40 38 34 30 29 33 38 44 50 56 61 64 63 62 61 61 61 64 67 71 74 75 74 71 67 64 63 66 75 92 118 149 170 180 188 198 208 217 226 236 250 263
253 254 254 256 258 260 263 266 268 269 270 266 261 265 274 276 274 274 277 279 279 278 277 277 278 279 281 284 288 293 296 294 295 298 291 281 279 291 304 318 331 341 358 13 16 13 13 15 20 30 42 47 50 53 59 63 63 62 60 58 57 59 62 66 70 73 74 71 65 59 54 51 54 62 89 170 202 214 219 224 229 236 245 254 264
254 256 256 256 258 261 265 267 267 268 269 268 263 264 270 274 271 268 271 275 276 274 272 271 271 272 275 278 279 283 288 288 287 290 288 277 265 265 279 294 305 315 324 338 347 348 346 347 348 355 19 44 54 55 58 67 71 70 67 65 62 58 57 57 59 62 65 64 63 56 45 35 29 23 20 3 297 259 249 247 248 252 257 262 266
255 258 260 261 262 265 268 268 267 267 268 268 266 264 266 270 269 265 265 270 272 273 274 273 269 265 266 271 275 277 279 281 282 281 280 276 268 264 268 277 286 296 305 311 320 326 323 321 323 325 326 332 357 30 44 64 74 74 73 72 69 64 59 52 48 49 50 50 47 38 24 7 350 340 336 330 319 304 293 283 276 272 272 275 278
253 253 257 262 266 269 272 272 269 266 266 266 265 264 265 268 269 268 268 270 271 272 276 278 276 269 264 264 268 272 276 280 283 283 279 276 272 268 268 273 279 285 289 291 296 302 304 304 306 306 307 310 316 320 322 317 346 66 66 64 64 63 58 47 36 32 31 31 29 24 17 7 356 342 328 317 309 305 303 303 300 295 291 290 291
247 249 251 253 259 264 269 271 269 267 266 265 264 263 264 266 268 268 267 269 272 273 273 277 280 279 273 267 265 267 270 274 277 280 279 277 275 272 270 271 276 280 281 279 278 280 285 290 290 290 292 296 300 302 303 301 301 317 346 355 355 3 14 17 14 9 5 1 0 359 359 356 353 348 343 332 322 316 312 310 308 306 303 299 297
244 250 252 250 249 252 256 261 264 264 264 264 264 263 262 262 263 264 263 263 267 270 270 271 277 282 281 276 270 267 267 270 272 274 275 275 273 270 268 267 269 274 278 280 280 277 276 276 275 275 277 278 280 279 274 273 278 286 302 316 323 327 330 334 335 336 334 332 333 335 338 340 339 338 337 334 330 327 324 322 319 317 314 310 307
240 246 250 250 248 248 252 256 258 260 261 263 263 260 258 258 258 259 260 261 262 263 263 264 269 274 276 276 275 274 273 275 274 271 272 274 272 268 265 263 264 267 272 278 281 279 274 270 266 265 265 267 268 268 264 261 265 266 264 271 284 298 309 315 317 315 314 315 316 320 325 327 328 327 327 327 326 325 324 323 322 321 320 318 316
241 243 246 250 252 253 255 255 255 255 255 256 258 257 256 257 258 259 260 263 264 261 257 256 259 262 264 267 270 273 273 273 271 270 271 273 273 271 267 264 264 266 270 274 276 275 274 271 267 262 261 261 261 261 259 258 260 260 257 253 253 259 270 283 292 295 297 299 303 306 310 313 314 315 316 317 319 318 318 319 321 322 322 320 318
248 248 249 252 254 254 254 253 253 253 251 249 251 254 258 261 263 263 263 262 262 260 255 253 255 257 257 256 259 263 266 266 268 271 273 272 272 273 271 268 267 266 268 272 273 272 273 272 269 265 262 260 258 257 256 258 262 264 262 259 257 254 255 259 266 270 271 275 281 286 290 295 298 299 300 302 303 304 305 308 314 320 323 323 322
247 249 250 251 252 251 250 250 252 252 253 252 253 256 261 264 266 267 264 260 259 258 255 253 254 256 256 254 255 258 261 263 266 271 274 272 270 271 269 268 270 269 268 268 269 270 271 269 267 266 265 264 263 261 260 261 264 266 266 266 265 261 256 256 258 259 261 264 269 273 277 283 287 290 291 291 292 294 295 296 299 304 312 319 323
242 244 246 247 248 247 248 249 250 251 253 256 257 258 261 263 266 266 261 256 254 253 251 251 253 255 256 256 257 259 260 262 264 268 272 271 268 266 264 264 267 269 268 268 267 268 269 269 269 268 268 268 269 269 268 266 267 268 269 270 269 265 262 261 259 257 257 261 266 270 271 273 276 279 281 282 284 286 288 289 290 292 297 304 312
236 237 239 241 241 242 244 245 245 246 249 253 256 259 260 260 261 261 254 249 248 247 247 249 251 251 251 253 255 256 258 259 260 262 266 265 263 262 260 260 262 264 265 266 267 266 267 270 272 270 269 269 271 272 272 269 266 265 265 267 267 266 265 266 263 260 260 261 265 269 269 269 270 272 275 278 281 282 282 282 284 285 287 293 301
231 231 232 236 237 238 240 242 243 243 245 247 250 254 257 257 257 257 251 245 244 245 246 248 249 246 245 246 248 248 250 254 256 257 259 257 256 258 259 260 261 261 263 266 266 265 265 266 267 268 269 270 271 273 276 274 271 268 267 269 269 267 267 266 265 266 265 263 264 268 270 270 271 273 276 279 281 282 281 281 281 281 283 288 295
231 232 233 235 237 238 239 241 243 244 245 246 246 248 252 254 255 257 252 245 243 244 244 245 246 245 243 243 243 243 244 248 251 253 253 251 250 251 253 255 256 256 258 261 263 264 264 262 263 265 267 268 271 276 281 281 279 278 276 274 271 270 268 267 267 270 269 266 266 270 272 273 274 275 277 279 280 281 282 282 282 281 284 288 294
226 230 234 235 237 238 239 240 241 241 243 246 247 247 249 250 253 255 253 247 243 244 244 243 244 245 244 244 246 244 243 244 247 248 248 247 246 245 245 247 249 249 249 251 253 256 259 261 263 265 266 267 271 277 282 281 280 280 279 276 273 272 268 265 267 270 271 270 270 272 275 276 275 276 278 279 279 280 281 282 282 282 284 288 293
223 224 228 233 235 237 239 241 241 241 241 243 245 246 246 246 248 251 251 248 246 246 245 244 245 246 246 246 248 248 245 244 245 247 247 246 245 245 245 245 246 247 248 249 251 254 258 260 262 263 265 266 269 274 277 276 276 275 272 268 265 265 263 262 265 269 270 271 272 273 276 279 278 277 278 280 280 280 281 282 282 281 283 287 291
227 224 224 228 233 235 237 238 239 239 239 240 242 243 241 240 241 244 246 247 247 247 246 245 245 247 246 246 247 248 248 247 247 248 249 248 246 247 247 247 247 247 248 250 252 255 258 260 260 260 260 262 265 268 268 269 269 267 263 260 260 262 264 265 267 268 268 270 271 273 277 281 281 279 279 280 280 280 281 281 281 281 282 285 289
228 228 226 228 230 231 231 231 231 232 233 236 238 240 239 238 237 238 240 242 245 247 248 247 247 248 248 247 247 248 248 249 249 250 251 250 249 249 249 249 249 249 250 250 252 253 255 257 259 260 260 262 264 262 259 261 263 261 259 259 261 263 265 267 269 269 269 270 271 273 276 280 280 280 280 280 280 281 281 281 281 281 281 283 286
226 228 229 230 230 230 228 228 228 230 232 234 237 239 239 239 238 239 241 243 245 247 249 249 250 251 252 252 252 252 251 251 251 251 251 251 251 251 250 250 250 251 252 253 253 254 254 255 257 258 259 260 260 256 254 257 260 260 260 260 262 264 267 269 271 272 271 271 272 273 275 277 278 278 280 281 281 281 281 280 280 281 282 282 284
227 228 228 229 230 230 230 229 230 231 233 236 238 240 241 241 241 242 244 246 248 249 250 251 252 253 254 255 256 256 256 255 254 253 252 252 252 252 252 252 252 252 252 253 254 255 255 256 257 258 259 259 258 257 256 259 263 265 267 267 268 268 269 271 272 272 272 272 273 273 273 274 276 278 279 280 280 280 280 280 280 281 282 282 282
230 230 229 228 228 230 231 231 231 232 234 236 238 240 242 243 243 244 245 247 249 251 252 253 254 254 254 254 254 254 255 256 256 255 255 255 255 255 256 256 255 255 254 254 254 255 255 256 257 258 259 260 260 259 259 260 263 266 268 270 270 271 271 271 272 272 273 273 274 274 274 274 275 277 278 279 279 279 280 281 281 281 282 282 282
230 230 230 229 229 230 232 233 233 233 235 236 238 239 241 242 243 244 245 246 248 249 251 252 254 255 255 254 253 252 253 254 254 255 255 256 256 256 257 258 259 259 258 257 256 256 257 257 257 258 259 260 260 261 261 262 263 265 267 268 269 269 270 271 272 272 273 273 274 275 275 275 276 278 279 279 280 280 280 281 281 281 282 282 282
231 231 231 231 231 231 233 235 236 237 237 238 239 240 241 242 243 244 245 246 247 248 249 250 252 253 254 254 254 253 252 252 252 253 254 255 256 256 257 258 259 260 260 260 259 259 259 259 260 260 260 260 261 261 262 263 264 265 266 267 267 267 268 270 271 272 272 273 273 274 275 276 277 279 279 280 280 281 281 281 281 281 282 282 283
233 234 234 234 234 234 234 236 237 238 238 239 240 241 242 243 243 244 244 245 247 248 249 249 250 251 252 253 253 253 253 252 252 252 253 253 254 255 257 258 259 259 260 260 260 260 261 261 261 262 262 262 262 262 263 264 264 264 265 266 266 267 267 268 269 270 271 271 271 272 273 275 276 278 278 279 279 280 280 280 281 281 282 282 283
235 236 236 237 237 237 237 237 238 238 238 239 240 241 242 243 244 244 245 245 246 247 248 249 250 251 252 252 253 253 253 253 252 252 252 253 254 255 256 258 259 259 260 261 261 261 261 262 262 263 263 263 263 264 264 265 265 266 266 267 267 267 267 267 268 268 268 269 269 270 271 272 273 275 276 276 277 279 279 279 279 280 281 281 282
238 238 238 239 239 239 240 240 239 239 239 239 240 241 242 243 244 244 245 246 246 247 248 248 250 251 252 253 253 254 254 254 253 253 254 254 255 256 257 258 259 260 260 261 261 261 262 262 263 263 264 264 265 265 266 266 267 267 267 267 267 266 266 266 266 266 266 266 266 267 268 269 270 272 273 275 276 278 279 279 279 279 280 281 281
239 239 240 240 241 242 242 242 242 241 241 241 241 242 242 243 244 245 246 246 247 248 248 249 250 251 251 252 253 253 253 254 254 254 255 256 257 257 258 258 259 260 260 261 261 262 262 262 263 264 264 265 266 266 267 267 267 267 266 266 266 266 265 265 264 264 264 264 264 264 265 267 268 270 272 274 275 277 278 279 279 279 279 280 281
241 241 241 241 242 243 244 244 244 244 243 244 244 244 245 245 246 247 248 248 249 249 250 250 251 251 252 253 253 254 254 254 255 255 255 256 257 257 258 259 259 260 261 261 261 261 262 262 263 264 264 265 266 267 267 267 267 267 266 266 266 266 265 265 265 264 264 264 264 264 265 266 268 269 271 273 275 276 277 278 278 279 279 280 281
243 243 243 243 243 244 244 245 246 246 246 246 246 247 248 249 249 250 251 252 252 252 253 253 253 253 254 254 255 255 255 256 256 257 257 257 258 258 259 259 260 260 261 261 262 262 262 263 263 263 264 265 266 266 267 268 268 268 267 266 266 265 265 265 265 265 265 265 265 266 266 268 269 270 271 273 274 275 276 277 277 278 279 281 282
245 245 245 245 245 245 245 246 246 247 247 248 248 249 249 250 251 252 253 253 254 254 255 255 255 256 256 257 257 257 257 257 258 258 258 259 259 260 260 260 261 261 262 262 263 263 263 264 264 264 265 266 266 267 267 268 268 268 268 268 267 266 266 266 266 266 267 267 267 268 268 269 270 271 272 272 273 274 275 275 276 278 279 280 282
247 247 247 247 247 247 247 247 247 248 248 249 249 250 250 251 251 252 253 254 254 254 255 255 256 256 257 257 258 259 259 260 260 260 260 260 261 261 262 262 262 262 263 263 264 264 264 265 265 266 266 267 267 267 268 268 268 268 268 268 268 268 267 267 267 267 268 268 269 269 270 270 271 271 272 272 273 274 274 275 277 278 279 280 282
248 249 249 249 249 249 249 250 250 250 250 250 250 251 251 251 252 252 253 253 254 254 255 255 256 256 256 256 257 258 258 259 260 260 261 261 262 262 263 263 263 264 264 265 265 265 265 266 266 267 267 267 268 268 268 268 268 268 268 268 268 268 268 268 268 268 269 269 269 270 270 271 271 272 272 273 273 274 275 277 278 279 280 282 283
249 250 250 250 250 251 251 251 251 252 252 252 252 252 252 252 253 253 253 253 254 254 255 255 256 256 257 257 257 257 258 258 259 259 260 261 261 262 262 263 264 264 265 265 266 266 266 266 267 267 267 268 268 268 267 267 267 267 267 267 268 268 269 269 269 270 270 270 270 270 271 271 272 272 273 274 275 276 278 279 280 281 282 283 284
250 250 251 251 251 251 252 252 252 253 253 253 253 253 254 254 254 254 254 255 255 255 255 256 256 256 257 257 258 258 259 259 259 260 260 261 261 262 262 263 263 264 264 265 265 265 266 266 266 267 267 267 267 267 267 267 267 267 267 267 268 268 269 269 270 271 271 271 272 272 272 272 273 273 274 275 276 277 279 280 281 282 283 283 284
251 251 251 252 252 252 252 253 253 253 254 254 254 254 255 255 255 255 256 256 256 256 256 257 257 257 258 258 258 259 259 260 260 261 261 261 262 262 263 263 264 264 264 264 264 264 264 264 265 265 265 266 266 267 267 267 267 267 267 267 268 268 269 269 270 271 271 272 272 273 273 273 274 275 275 276 277 278 279 280 281 282 283 284 285
253 253 253 253 253 253 253 253 254 254 254 254 255 255 255 256 256 256 257 257 257 257 257 258 258 258 259 259 259 259 260 260 261 261 261 262 262 263 263 264 264 264 264 264 264 263 263 263 264 264 264 265 265 266 266 266 267 267 267 268 268 268 269 269 270 271 271 272 272 273 273 274 274 275 276 277 277 278 279 280 281 282 283 283 284
254 255 255 255 255 255 255 255 255 255 255 255 255 256 256 256 257 257 258 258 258 258 259 259 259 259 259 260 260 260 261 261 261 262 262 262 263 263 263 264 264 264 264 264 264 264 264 264 264 264 264 265 265 266 266 266 267 267 267 268 268 268 269 269 270 271 271 272 272 272 273 273 274 275 275 276 277 278 279 280 280 281 282 283 283
255 256 256 256 256 256 256 256 256 256 257 257 257 257 257 258 258 258 258 259 259 260 260 260 260 260 260 261 261 261 261 262 262 262 263 263 263 263 263 264 264 264 264 264 264 264 264 264 264 265 265 265 266 266 266 267 267 267 268 268 268 269 269 270 270 271 271 272 272 273 273 273 274 275 275 276 277 277 278 279 279 280 281 281 282
257 257 257 257 257 257 257 257 257 258 258 258 258 259 259 259 259 260 260 260 260 261 261 261 261 261 261 262 262 262 262 262 263 263 263 263 263 264 264 264 264 264 264 264 264 264 264 265 265 265 265 265 266 266 266 267 267 267 268 268 269 269 269 270 270 271 271 272 273 273 274 274 275 275 276 276 277 277 278 279 279 280 280 281 281
260 259 259 259 258 258 258 258 258 259 259 259 259 260 260 260 261 261 261 261 262 262 262 262 262 262 262 263 263 263 263 263 263 263 264 264 264 264 264 264 264 264 265 265 265 265 265 265 265 265 265 266 266 266 266 267 267 267 268 268 269 269 269 270 270 271 271 272 272 273 274 274 275 276 276 277 277 278 278 279 280 281 281 282 282
263 262 262 261 261 261 261 261 261 261 261 261 261 261 261 261 261 261 262 262 262 262 262 263 263 263 263 263 263 263 264 264 264 264 264 264 264 264 264 264 265 265 265 265 265 265 265 266 266 266 266 266 266 266 267 267 267 267 268 268 268 269 269 270 270 270 271 271 272 272 273 274 274 275 276 276 277 278 278 279 280 280 281 282 282
266 266 265 265 265 265 265 265 264 264 264 264 263 263 263 263 262 262 262 262 262 263 263 263 263 263 263 264 264 264 264 264 264 264 264 264 264 264 264 264 264 265 265 265 265 265 266 266 266 266 266 266 266 267 267 267 267 267 268 268 268 268 269 269 269 270 270 271 271 272 272 273 274 274 275 276 276 277 277 278 279 279 280 280 281
269 269 269 268 268 268 268 268 267 267 267 266 266 266 265 265 265 264 264 264 264 264 264 264 264 264 264 264 264 264 264 264 264 264 264 264 264 264 264 264 264 265 265 265 265 265 265 265 266 266 266 266 266 267 267 267 267 267 268 268 268 268 269 269 269 270 270 270 271 271 272 272 273 273 274 275 275 276 276 277 277 278 278 279 279
272 271 271 271 271 270 270 270 269 269 268 268 268 267 267 267 266 266 266 266 265 265 265 265 265 265 265 265 264 264 264 264 264 264 264 264 264 264 264 264 264 264 265 265 265 265 265 265 266 266 266 266 266 266 267 267 267 267 267 268 268 268 269 269 269 270 270 270 271 271 271 272 272 273 273 274 274 275 275 276 276 277 277 278 278
Height
11011 11012 11012 11013 11013 11013 11014 11014 11014 11015 11015 11016 11016 11016 11016 11016 11016 11016 11016 11015 11015 11014 11014 11013 11012 11011 11011 11010 11009 11009 11009 11008 11008 11007 11007 11006 11005 11004 11004 11002 11001 11000 10999 10998 10997 10996 10995 10994 10993 10992 10992 10991 10991 10991 10990 10990 10990 10989 10988 10988 10988 10987 10987 10988 10988 10988 10989 10990 10991 10992 10992 10993 10994 10995 10996 10997 10997 10997 10997 10997 10997 10996 10997 10997 10997
11010 11011 11011 11011 11012 11012 11013 11013 11014 11014 11014 11015 11015 11015 11016 11016 11016 11016 11016 11015 11015 11015 11014 11014 11013 11013 11012 11011 11011 11010 11009 11009 11009 11008 11008 11008 11007 11006 11005 11004 11003 11002 11001 11000 10999 10998 10997 10996 10995 10995 10994 10994 10993 10993 10993 10992 10992 10991 10991 10990 10990 10990 10991 10990 10990 10990 10991 10991 10992 10993 10994 10995 10996 10997 10998 10998 10999 10999 10999 10999 10998 10998 10998 10998 10998
11008 11009 11010 11010 11011 11011 11012 11012 11013 11013 11014 11014 11014 11014 11014 11015 11015 11015 11015 11015 11015 11015 11014 11014 11013 11013 11013 11013 11012 11011 11010 11009 11009 11009 11009 11008 11008 11007 11007 11006 11005 11004 11003 11002 11001 11001 11000 10999 10998 10997 10996 10996 10995 10995 10994 10994 10994 10994 10993 10993 10993 10993 10993 10993 10993 10993 10993 10993 10994 10995 10996 10997 10997 10998 10999 11000 11000 11001 11000 11000 11000 10999 10999 10999 10999
11006 11007 11008 11009 11009 11010 11011 11011 11012 11012 11012 11013 11013 11013 11013 11014 11014 11014 11015 11015 11015 11014 11014 11014 11013 11013 11013 11013 11012 11012 11011 11010 11009 11009 11009 11009 11008 11008 11008 11007 11007 11006 11005 11004 11003 11002 11002 11001 11000 10999 10998 10998 10997 10996 10996 10996 10995 10995 10995 10995 10995 10995 10995 10995 10995 10995 10995 10996 10996 10996 10997 10998 10999 11000 11000 11001 11001 11001 11001 11001 11001 11000 11000 11000 11000
11004 11006 11006 11007 11008 11009 11009 11010 11010 11010 11011 11011 11012 11012 11012 11013 11013 11013 11013 11014 11014 11014 11014 11014 11013 11013 11013 11012 11012 11012 11011 11011 11010 11009 11009 11008 11008 11008 11008 11008 11008 11008 11007 11006 11006 11005 11004 11003 11002 11001 11001 11000 10999 10998 10998 10997 10997 10997 10996 10996 10996 10996 10997 10997 10997 10997 10997 10997 10998 10998 10998 10999 11000 11001 11001 11002 11002 11002 11002 11002 11001 11001 11001 11000 11000
11003 11004 11004 11005 11005 11006 11006 11007 11007 11008 11008 11009 11009 11010 11010 11010 11011 11011 11012 11012 11012 11013 11013 11013 11013 11012 11012 11012 11012 11012 11011 11011 11010 11010 11009 11008 11008 11008 11008 11008 11008 11008 11008 11008 11008 11007 11006 11005 11004 11003 11002 11002 11001 11000 10999 10999 10998 10998 10998 10998 10998 10998 10998 10998 10998 10998 10999 10999 10999 10999 11000 11000 11000 11001 11002 11002 11003 11003 11003 11003 11002 11002 11001 11001 11000
11000 11001 11002 11002 11003 11003 11003 11004 11004 11005 11006 11006 11006 11007 11007 11007 11008 11009 11009 11009 11010 11011 11011 11011 11011 11011 11011 11010 11011 11011 11011 11011 11010 11010 11010 11009 11008 11008 11008 11008 11008 11008 11009 11008 11008 11008 11007 11006 11006 11005 11004 11003 11002 11002 11001 11000 11000 11000 10999 10999 10999 10999 10999 10999 11000 11000 11000 11000 11000 11000 11000 11001 11001 11001 11002 11003 11003 11003 11003 11003 11003 11002 11002 11002 11001
10997 10998 10999 10999 11000 11000 11001 11001 11002 11002 11003 11003 11004 11004 11004 11005 11005 11005 11006 11006 11007 11007 11008 11009 11009 11010 11009 11009 11009 11009 11010 11010 11010 11010 11010 11009 11009 11008 11008 11008 11008 11008 11008 11008 11008 11008 11007 11007 11006 11006 11005 11004 11003 11003 11002 11002 11001 11000 11000 11000 11000 11000 11000 11000 11001 11001 11001 11001 11001 11001 11001 11001 11001 11002 11002 11002 11003 11003 11003 11003 11003 11002 11002 11002 11001
10994 10995 10995 10996 10996 10997 10998 10999 10999 10999 11000 11001 11002 11002 11002 11002 11002 11002 11002 11003 11003 11004 11004 11005 11006 11007 11007 11007 11007 11007 11008 11008 11008 11008 11008 11008 11008 11008 11007 11007 11007 11007 11008 11008 11008 11007 11007 11007 11007 11006 11006 11005 11004 11003 11003 11003 11002 11001 11001 11000 11000 11000 11001 11001 11001 11001 11001 11002 11001 11001 11001 11001 11001 11002 11002 11002 11002 11003 11003 11003 11002 11002 11002 11002 11001
10991 10992 10991 10991 10992 10993 10994 10995 10996 10996 10997 10998 10999 10999 10999 10999 10999 10999 10999 11000 11000 11000 11001 11001 11002 11003 11004 11004 11004 11004 11004 11005 11005 11005 11005 11006 11006 11006 11006 11006 11006 11006 11007 11007 11007 11007 11006 11006 11006 11006 11006 11005 11005 11004 11004 11003 11003 11002 11001 11001 11000 11000 11000 11000 11001 11001 11001 11001 11001 11001 11001 11001 11001 11001 11001 11001 11002 11002 11002 11002 11002 11002 11001 11001 11000
10987 10987 10987 10988 10989 10990 10990 10991 10991 10992 10993 10994 10995 10995 10996 10996 10997 10997 10997 10997 10997 10997 10997 10998 10998 10999 11000 11001 11001 11001 11001 11002 11002 11002 11003 11003 11004 11004 11005 11005 11005 11005 11005 11005 11006 11006 11005 11005 11005 11005 11005 11005 11004 11004 11003 11003 11003 11002 11001 11000 11000 10999 10999 10999 10999 11000 11000 11000 11000 11001 11001 11001 11001 11001 11001 11001 11001 11001 11001 11001 11001 11000 11000 10999 10998
10981 10981 10983 10985 10986 10986 10986 10986 10986 10987 10989 10990 10991 10991 10992 10993 10993 10994 10994 10993 10992 10993 10993 10994 10995 10996 10997 10997 10998 10997 10997 10998 10999 11000 11000 11001 11002 11002 11002 11002 11003 11003 11003 11004 11004 11004 11004 11004 11004 11004 11004 11003 11003 11002 11002 11002 11002 11001 11001 11000 10999 10999 10998 10998 10998 10998 10998 10998 10999 10999 10999 11000 11000 11000 11000 11000 11000 11000 11000 11000 10999 10999 10998 10998 10997
10976 10978 10980 10981 10982 10981 10981 10980 10981 10982 10984 10985 10986 10987 10987 10988 10989 10990 10990 10989 10989 10989 10990 10991 10992 10993 10993 10993 10993 10993 10993 10994 10995 10996 10997 10998 10998 10998 10999 10999 10999 11000 11000 11001 11002 11002 11002 11002 11002 11002 11002 11002 11001 11000 11000 11000 11000 11000 11000 10999 10998 10998 10998 10997 10997 10997 10997 10997 10997 10997 10997 10998 10998 10998 10998 10998 10998 10998 10998 10998 10998 10997 10997 10996 10995
10973 10975 10976 10976 10976 10976 10975 10975 10976 10978 10979 10980 10981 10982 10982 10982 10983 10984 10985 10986 10986 10987 10987 10988 10988 10988 10988 10988 10988 10988 10989 10991 10992 10992 10993 10994 10994 10994 10994 10995 10996 10996 10997 10998 10999 10999 10999 10999 10999 10999 11000 11000 10999 10998 10997 10997 10997 10998 10997 10997 10997 10997 10996 10996 10996 10995 10995 10995 10995 10995 10995 10995 10995 10995 10995 10995 10995 10995 10995 10995 10994 10994 10993 10993 10991
10971 10972 10972 10971 10970 10969 10970 10971 10972 10973 10974 10975 10976 10976 10976 10977 10978 10980 10982 10983 10983 10984 10985 10984 10983 10982 10983 10983 10984 10984 10985 10986 10987 10988 10989 10989 10990 10990 10990 10991 10992 10992 10993 10994 10995 10995 10995 10995 10996 10996 10996 10996 10996 10996 10995 10995 10995 10995 10995 10994 10994 10994 10994 10994 10994 10993 10993 10993 10993 10993 10993 10993 10993 10993 10993 10992 10992 10992 10992 10991 10991 10991 10990 10989 10988
10968 10968 10969 10968 10965 10963 10964 10965 10966 10967 10968 10968 10968 10969 10970 10972 10974 10976 10978 10978 10978 10980 10981 10980 10978 10977 10978 10980 10980 10980 10980 10981 10982 10984 10985 10985 10986 10986 10986 10987 10988 10988 10989 10990 10990 10990 10991 10991 10991 10992 10992 10992 10992 10992 10992 10992 10992 10992 10992 10992 10992 10992 10991 10991 10991 10991 10990 10990 10990 10990 10990 10990 10990 10990 10990 10990 10989 10989 10989 10988 10988 10987 10987 10986 10985
10961 10962 10963 10963 10960 10958 10958 10959 10959 10961 10961 10961 10961 10962 10964 10966 10968 10971 10972 10972 10972 10975 10976 10975 10973 10973 10974 10975 10975 10974 10975 10976 10977 10979 10980 10980 10981 10981 10982 10982 10983 10984 10985 10986 10986 10986 10987 10987 10986 10986 10987 10987 10987 10988 10988 10988 10988 10988 10988 10988 10988 10989 10988 10988 10988 10987 10987 10986 10986 10986 10987 10986 10986 10986 10986 10986 10985 10985 10984 10984 10983 10983 10982 10982 10981
10953 10954 10955 10954 10952 10951 10952 10952 10953 10955 10955 10954 10954 10955 10957 10959 10963 10965 10965 10965 10966 10968 10969 10968 10967 10967 10968 10969 10970 10969 10970 10971 10973 10974 10975 10975 10976 10977 10977 10978 10978 10979 10979 10981 10982 10982 10981 10981 10981 10981 10982 10982 10982 10982 10983 10983 10983 10983 10983 10983 10983 10984 10984 10984 10984 10983 10983 10982 10982 10982 10982 10982 10982 10981 10981 10980 10980 10980 10979 10979 10978 10977 10977 10976 10976
10943 10944 10944 10943 10943 10944 10944 10944 10945 10948 10949 10948 10947 10948 10950 10953 10956 10958 10958 10957 10958 10959 10959 10959 10960 10960 10961 10962 10963 10964 10965 10965 10966 10968 10969 10969 10970 10971 10972 10973 10973 10973 10973 10975 10976 10976 10976 10975 10975 10976 10977 10977 10977 10976 10977 10977 10977 10978 10978 10977 10977 10978 10978 10978 10978 10978 10978 10977 10977 10977 10977 10977 10976 10976 10975 10975 10974 10974 10974 10974 10973 10972 10971 10970 10970
10930 10931 10933 10933 10934 10936 10936 10936 10938 10940 10942 10941 10941 10941 10943 10946 10948 10949 10949 10950 10950 10950 10950 10951 10952 10953 10954 10955 10956 10957 10958 10958 10959 10961 10962 10963 10964 10966 10967 10967 10968 10968 10968 10969 10970 10970 10970 10970 10970 10970 10970 10971 10970 10971 10971 10972 10972 10971 10971 10971 10972 10972 10972 10972 10972 10972 10973 10972 10972 10971 10971 10971 10971 10970 10969 10968 10968 10968 10968 10967 10967 10966 10966 10965 10964
10918 10921 10923 10924 10925 10927 10928 10929 10930 10932 10933 10933 10934 10935 10936 10938 10939 10940 10941 10942 10943 10942 10942 10944 10944 10945 10947 10948 10948 10949 10950 10951 10952 10953 10955 10957 10958 10960 10960 10961 10961 10961 10961 10962 10962 10962 10963 10963 10964 10964 10965 10964 10964 10964 10965 10966 10966 10965 10965 10965 10965 10964 10965 10966 10965 10965 10966 10966 10965 10965 10965 10964 10964 10963 10963 10962 10961 10961 10961 10960 10959 10959 10959 10958 10957
10907 10910 10913 10915 10916 10918 10919 10919 10921 10923 10924 10925 10926 10927 10929 10930 10931 10931 10932 10934 10935 10934 10935 10937 10937 10937 10939 10940 10941 10942 10942 10943 10944 10946 10948 10950 10951 10952 10953 10953 10953 10953 10953 10954 10955 10955 10955 10955 10956 10957 10959 10959 10959 10959 10959 10960 10960 10960 10960 10959 10957 10957 10958 10958 10957 10956 10957 10958 10958 10958 10958 10958 10958 10957 10956 10955 10955 10954 10953 10953 10952 10951 10951 10950 10950
10899 10900 10903 10906 10907 10908 10909 10910 10912 10914 10916 10917 10918 10919 10920 10922 10922 10922 10923 10925 10926 10926 10927 10929 10929 10929 10930 10931 10932 10935 10935 10935 10936 10938 10940 10942 10944 10944 10945 10945 10945 10945 10945 10946 10947 10947 10947 10947 10948 10950 10951 10951 10952 10953 10954 10954 10953 10954 10955 10954 10952 10951 10950 10950 10949 10948 10948 10949 10949 10950 10950 10951 10951 10950 10949 10948 10947 10947 10946 10945 10944 10943 10943 10942 10942
10893 10892 10893 10896 10898 10900 10900 10901 10903 10905 10906 10908 10909 10910 10911 10912 10913 10914 10914 10915 10916 10917 10918 10919 10920 10921 10922 10922 10923 10926 10927 10928 10928 10929 10931 10934 10936 10937 10938 10938 10938 10938 10938 10938 10939 10940 10940 10940 10941 10942 10943 10943 10945 10948 10949 10947 10946 10947 10947 10947 10945 10943 10942 10941 10941 10941 10940 10940 10940 10941 10941 10942 10943 10942 10942 10941 10940 10939 10938 10937 10936 10935 10934 10934 10933
10886 10886 10886 10886 10888 10890 10892 10893 10894 10895 10896 10898 10899 10901 10902 10903 10904 10904 10904 10906 10907 10907 10908 10909 10910 10911 10912 10913 10915 10917 10919 10920 10921 10921 10922 10924 10926 10927 10929 10930 10930 10930 10930 10930 10931 10932 10934 10934 10935 10936 10937 10937 10940 10941 10940 10939 10939 10938 10937 10937 10935 10935 10934 10932 10931 10932 10932 10931 10932 10932 10933 10933 10934 10934 10934 10933 10932 10931 10930 10929 10928 10926 10926 10926 10925
10877 10877 10878 10878 10879 10881 10882 10883 10885 10886 10887 10888 10890 10891 10892 10893 10894 10894 10895 10895 10897 10898 10899 10900 10901 10902 10903 10904 10906 10908 10910 10911 10912 10913 10914 10915 10916 10917 10919 10920 10921 10922 10922 10922 10922 10924 10926 10927 10928 10930 10931 10933 10933 10931 10928 10927 10927 10927 10927 10927 10927 10926 10924 10922 10922 10923 10922 10923 10924 10925 10925 10925 10925 10925 10925 10924 10923 10922 10921 10920 10918 10917 10917 10917 10917
10866 10867 10868 10869 10870 10871 10872 10873 10875 10876 10877 10878 10880 10881 10882 10883 10884 10884 10885 10885 10886 10887 10889 10890 10892 10893 10894 10895 10896 10898 10900 10901 10902 10904 10905 10905 10906 10907 10908 10910 10911 10912 10912 10913 10914 10914 10916 10918 10920 10921 10923 10925 10926 10923 10918 10915 10914 10914 10916 10918 10918 10917 10915 10913 10913 10913 10913 10914 10915 10916 10916 10916 10916 10916 10916 10915 10913 10912 10911 10910 10909 10908 10908 10908 10908
10856 10857 10858 10858 10859 10860 10862 10863 10865 10866 10867 10868 10870 10871 10872 10873 10874 10874 10874 10875 10876 10877 10878 10879 10880 10882 10883 10885 10886 10888 10889 10891 10892 10893 10894 10895 10896 10897 10898 10899 10900 10901 10902 10904 10904 10904 10905 10907 10909 10911 10912 10914 10915 10915 10912 10908 10905 10905 10905 10906 10907 10906 10903 10902 10903 10903 10903 10903 10904 10905 10906 10906 10906 10907 10906 10904 10903 10902 10901 10900 10899 10898 10898 10897 10897
10844 10846 10847 10848 10849 10850 10851 10852 10854 10856 10857 10858 10859 10860 10861 10862 10863 10864 10864 10865 10865 10866 10867 10868 10869 10870 10872 10873 10875 10877 10879 10880 10881 10882 10883 10885 10886 10887 10888 10889 10890 10890 10892 10894 10894 10894 10895 10896 10898 10900 10901 10903 10904 10904 10903 10901 10899 10898 10897 10897 10897 10895 10892 10891 10892 10893 10892 10892 10892 10892 10893 10893 10893 10894 10894 10893 10891 10890 10890 10889 10889 10888 10887 10886 10886
10832 10834 10835 10837 10838 10839 10840 10841 10843 10844 10846 10848 10848 10849 10850 10851 10852 10853 10854 10855 10855 10856 10856 10857 10858 10859 10860 10861 10863 10864 10866 10868 10870 10871 10872 10873 10874 10875 10877 10878 10879 10879 10881 10883 10884 10884 10884 10885 10886 10888 10890 10891 10892 10892 10892 10891 10890 10889 10888 10888 10887 10886 10884 10882 10882 10882 10882 10881 10881 10881 10880 10880 10879 10880 10880 10879 10879 10877 10876 10876 10876 10875 10875 10874 10874
10819 10821 10823 10825 10826 10828 10829 10830 10831 10832 10834 10835 10837 10837 10838 10839 10840 10841 10842 10843 10843 10844 10844 10845 10846 10847 10848 10849 10850 10851 10853 10855 10856 10858 10859 10860 10861 10863 10864 10865 10867 10867 10869 10871 10872 10872 10872 10873 10874 10875 10877 10878 10879 10880 10880 10880 10879 10878 10878 10877 10876 10876 10875 10873 10872 10871 10871 10870 10869 10869 10869 10868 10868 10867 10866 10866 10866 10865 10863 10862 10862 10862 10862 10862 10862
10805 10807 10809 10811 10813 10815 10817 10818 10819 10820 10821 10822 10823 10824 10825 10826 10827 10828 10829 10830 10830 10831 10832 10833 10834 10835 10835 10836 10837 10838 10840 10841 10843 10844 10845 10847 10848 10849 10851 10852 10853 10854 10856 10858 10859 10860 10861 10860 10860 10861 10862 10864 10865 10866 10866 10866 10866 10866 10865 10865 10865 10864 10863 10863 10862 10861 10860 10859 10859 10858 10858 10857 10856 10855 10854 10853 10852 10851 10850 10849 10849 10849 10849 10849 10849
10791 10793 10795 10797 10799 10800 10802 10804 10805 10807 10808 10809 10810 10810 10811 10812 10813 10814 10815 10816 10817 10818 10819 10820 10821 10822 10822 10823 10824 10825 10827 10828 10830 10831 10832 10832 10834 10835 10837 10838 10839 10840 10842 10844 10845 10847 10847 10848 10847 10847 10847 10848 10849 10851 10851 10852 10852 10852 10852 10851 10851 10851 10851 10850 10850 10849 10848 10847 10847 10846 10845 10845 10844 10842 10841 10840 10839 10837 10837 10836 10836 10836 10836 10836 10836
10777 10778 10780 10782 10783 10784 10785 10787 10789 10791 10792 10793 10794 10796 10797 10798 10800 10801 10801 10802 10803 10805 10806 10807 10808 10809 10809 10809 10810 10811 10812 10814 10816 10817 10818 10819 10819 10821 10822 10823 10824 10825 10827 10829 10831 10832 10833 10834 10834 10834 10834 10833 10833 10835 10836 10837 10838 10838 10838 10837 10837 10837 10837 10836 10836 10835 10835 10834 10833 10832 10832 10831 10831 10830 10829 10827 10826 10824 10824 10823 10823 10823 10823 10822 10822
10761 10763 10765 10767 10768 10768 10769 10770 10772 10774 10776 10777 10778 10779 10780 10782 10784 10785 10786 10788 10789 10791 10792 10793 10795 10796 10796 10795 10795 10797 10798 10799 10800 10802 10803 10804 10805 10807 10808 10809 10809 10811 10812 10814 10815 10817 10818 10819 10820 10821 10820 10820 10819 10819 10820 10821 10822 10823 10824 10823 10823 10823 10822 10822 10822 10821 10821 10820 10819 10818 10818 10817 10817 10816 10815 10814 10813 10812 10811 10810 10810 10809 10809 10808 10808
10745 10747 10749 10751 10752 10753 10753 10754 10756 10757 10759 10761 10762 10763 10764 10765 10767 10768 10769 10770 10772 10774 10776 10777 10779 10782 10782 10781 10781 10781 10783 10784 10785 10786 10787 10789 10790 10792 10793 10794 10795 10796 10798 10798 10800 10802 10803 10804 10805 10806 10807 10807 10806 10805 10804 10805 10805 10806 10808 10809 10809 10808 10807 10807 10807 10806 10805 10805 10804 10804 10803 10803 10802 10802 10801 10801 10800 10799 10798 10797 10796 10796 10795 10794 10793
10730 10732 10733 10735 10736 10737 10738 10739 10740 10741 10742 10744 10746 10747 10748 10749 10750 10751 10752 10753 10755 10757 10758 10760 10762 10764 10765 10764 10764 10764 10766 10767 10769 10770 10772 10773 10774 10775 10776 10778 10780 10781 10782 10783 10785 10787 10788 10789 10790 10791 10791 10792 10792 10791 10791 10790 10789 10788 10789 10791 10792 10792 10792 10792 10791 10791 10790 10789 10788 10787 10787 10787 10787 10786 10786 10786 10786 10785 10784 10783 10782 10781 10779 10778 10777
10714 10716 10717 10718 10720 10721 10722 10723 10724 10725 10725 10726 10728 10729 10731 10732 10733 10733 10734 10735 10737 10739 10740 10742 10744 10746 10747 10747 10746 10746 10748 10750 10751 10753 10755 10756 10757 10758 10759 10760 10762 10764 10766 10768 10769 10771 10772 10773 10774 10774 10774 10776 10776 10776 10776 10775 10773 10772 10771 10771 10772 10773 10775 10775 10775 10774 10774 10773 10772 10770 10770 10769 10769 10769 10770 10770 10770 10769 10768 10767 10765 10764 10763 10761 10760
10698 10700 10701 10702 10703 10704 10705 10706 10706 10707 10708 10709 10709 10710 10711 10712 10714 10715 10716 10717 10718 10720 10722 10724 10725 10727 10729 10730 10730 10730 10731 10732 10734 10735 10736 10738 10739 10741 10742 10743 10744 10746 10748 10749 10752 10754 10755 10756 10757 10757 10757 10757 10759 10760 10759 10759 10757 10756 10755 10754 10753 10752 10754 10756 10757 10757 10757 10756 10755 10754 10753 10752 10752 10752 10752 10752 10752 10751 10750 10749 10747 10746 10745 10744 10743
10683 10683 10685 10686 10687 10688 10688 10689 10689 10689 10690 10691 10691 10692 10692 10693 10694 10696 10697 10699 10700 10702 10704 10705 10706 10707 10708 10710 10711 10712 10714 10715 10716 10717 10719 10720 10722 10724 10725 10727 10728 10729 10730 10731 10732 10735 10737 10738 10739 10739 10739 10739 10740 10741 10741 10741 10741 10740 10739 10738 10737 10735 10734 10735 10737 10737 10738 10738 10737 10737 10737 10736 10735 10735 10734 10734 10733 10732 10731 10730 10729 10728 10727 10726 10725
10667 10667 10668 10669 10670 10671 10671 10672 10672 10672 10672 10672 10673 10673 10674 10674 10675 10676 10678 10679 10680 10682 10684 10686 10687 10688 10688 10689 10691 10693 10695 10697 10698 10699 10701 10702 10704 10706 10708 10710 10712 10713 10714 10715 10715 10716 10718 10718 10719 10720 10720 10721 10721 10722 10722 10723 10723 10723 10722 10722 10721 10720 10719 10718 10718 10718 10718 10719 10718 10718 10718 10718 10717 10717 10717 10716 10715 10713 10712 10711 10710 10709 10708 10707 10707
10649 10650 10650 10651 10652 10653 10654 10654 10654 10654 10654 10654 10654 10655 10655 10656 10656 10657 10658 10659 10660 10662 10664 10666 10667 10668 10669 10670 10671 10673 10675 10677 10678 10681 10683 10684 10686 10688 10690 10693 10695 10697 10698 10699 10699 10700 10700 10700 10700 10700 10701 10701 10702 10702 10703 10703 10704 10704 10704 10704 10704 10704 10703 10702 10701 10700 10700 10700 10700 10700 10700 10699 10699 10698 10698 10696 10695 10694 10693 10692 10691 10690 10688 10688 10687
10630 10631 10632 10632 10633 10634 10635 10635 10636 10636 10636 10636 10636 10636 10637 10637 10637 10638 10638 10639 10640 10642 10644 10646 10648 10649 10649 10650 10651 10653 10655 10657 10659 10661 10664 10665 10667 10670 10672 10674 10676 10678 10679 10680 10681 10681 10681 10681 10681 10681 10681 10682 10682 10683 10684 10684 10684 10685 10685 10686 10686 10686 10685 10684 10683 10683 10682 10682 10682 10682 10682 10681 10680 10680 10678 10677 10676 10675 10674 10673 10672 10671 10670 10669 10668
10613 10613 10613 10614 10614 10614 10615 10615 10616 10616 10616 10616 10616 10617 10618 10619 10619 10619 10619 10620 10621 10623 10625 10627 10628 10628 10628 10630 10631 10633 10635 10637 10640 10642 10644 10646 10648 10650 10652 10654 10656 10657 10658 10659 10659 10660 10661 10661 10662 10662 10663 10663 10663 10664 10664 10664 10664 10665 10665 10666 10666 10666 10666 10666 10665 10665 10664 10664 10664 10663 10663 10662 10662 10661 10660 10659 10658 10656 10655 10654 10654 10653 10652 10651 10649
10595 10595 10595 10595 10595 10595 10595 10595 10596 10596 10596 10597 10597 10598 10599 10600 10600 10600 10601 10601 10602 10604 10605 10606 10606 10607 10607 10609 10611 10614 10616 10618 10620 10621 10623 10624 10626 10628 10630 10632 10633 10634 10635 10636 10637 10638 10638 10639 10641 10642 10643 10644 10644 10644 10644 10644 10643 10643 10644 10644 10645 10645 10645 10646 10645 10645 10645 10644 10643 10643 10642 10642 10642 10642 10641 10640 10639 10637 10636 10635 10634 10634 10633 10632 10631
10579 10579 10578 10577 10577 10576 10576 10576 10576 10577 10577 10578 10578 10579 10580 10580 10580 10580 10581 10582 10582 10583 10583 10583 10584 10584 10585 10587 10591 10594 10595 10597 10598 10599 10601 10602 10603 10605 10607 10608 10610 10611 10612 10612 10614 10615 10616 10617 10618 10619 10621 10622 10623 10624 10624 10624 10623 10623 10623 10623 10623 10624 10624 10625 10625 10625 10624 10623 10622 10621 10620 10619 10619 10620 10620 10619 10618 10617 10615 10613 10612 10611 10612 10611 10610
10564 10563 10561 10560 10559 10559 10558 10558 10558 10559 10559 10559 10560 10560 10560 10561 10561 10560 10560 10560 10560 10559 10559 10559 10561 10562 10563 10565 10568 10570 10572 10573 10575 10577 10578 10580 10581 10582 10583 10584 10585 10586 10587 10588 10589 10591 10592 10593 10594 10596 10598 10599 10601 10602 10602 10603 10603 10603 10603 10603 10603 10603 10603 10603 10604 10604 10605 10604 10603 10601 10600 10599 10598 10597 10597 10596 10596 10595 10594 10592 10590 10588 10587 10586 10586
10548 10547 10545 10544 10544 10543 10543 10542 10541 10541 10541 10541 10540 10540 10540 10540 10541 10540 10539 10538 10537 10536 10535 10536 10537 10539 10540 10542 10544 10545 10547 10549 10551 10553 10554 10555 10556 10557 10558 10559 10560 10561 10563 10564 10565 10566 10567 10568 10570 10572 10575 10577 10578 10579 10580 10580 10580 10581 10581 10582 10582 10582 10581 10581 10582 10583 10583 10583 10583 10582 10581 10580 10579 10578 10577 10576 10575 10574 10573 10572 10571 10569 10567 10566 10564
10533 10531 10530 10529 10528 10528 10526 10525 10524 10523 10522 10522 10521 10521 10520 10519 10519 10519 10518 10517 10516 10515 10514 10514 10515 10516 10518 10519 10520 10521 10523 10524 10525 10526 10528 10529 10531 10532 10533 10534 10536 10537 10539 10540 10542 10542 10543 10544 10546 10549 10551 10553 10554 10555 10556 10556 10557 10558 10559 10560 10560 10560 10560 10561 10561 10562 10562 10562 10562 10562 10562 10561 10560 10560 10559 10558 10557 10556 10555 10554 10553 10551 10550 10549 10547
10519 10517 10515 10514 10512 10511 10509 10508 10506 10505 10503 10502 10502 10501 10500 10499 10498 10498 10498 10497 10496 10495 10494 10494 10494 10494 10495 10497 10498 10499 10500 10500 10501 10502 10503 10504 10506 10507 10509 10511 10512 10514 10515 10516 10517 10518 10519 10520 10522 10524 10527 10528 10530 10531 10532 10533 10533 10534 10535 10535 10536 10537 10538 10539 10540 10540 10540 10541 10541 10541 10541 10541 10541 10541 10540 10539 10538 10538 10537 10536 10535 10534 10533 10531 10530
10504 10502 10500 10498 10496 10494 10492 10490 10488 10487 10485 10484 10483 10482 10481 10480 10479 10478 10478 10477 10477 10476 10475 10474 10475 10475 10475 10476 10477 10477 10478 10479 10479 10480 10482 10483 10484 10485 10486 10488 10489 10490 10492 10493 10494 10495 10496 10497 10499 10501 10503 10505 10506 10507 10508 10509 10509 10510 10511 10512 10513 10514 10515 10516 10516 10517 10518 10519 10519 10520 10520 10520 10521 10521 10521 10520 10519 10519 10518 10517 10516 10515 10514 10513 10512